Home   Weather   San Jose   Past weeks

Flag for USA Past Weather in San Jose, California, USA — Yesterday and Last 2 Weeks

Now
56 °F

Scattered clouds.


Feels Like: 54 °F
Forecast: 39 / 53 °F
Wind: 7 mph from Northwest

Location: San Jose International Airport

Current Time: Jan 24, 2017 at 3:42:29 pm

Latest Report: Jan 24, 2017 at 2:53 pm


Visibility: 10 mi

Pressure: 30.07 "Hg

Humidity: 53%

Dew Point: 39 °F

Location of San JoseLocation

Past Weather in San Jose — Graph

°F

San Jose Temperature Yesterday

Maximum temperature yesterday: 51 °F (at 12:53 pm)
Minimum temperature yesterday: 42 °F (at 6:53 am)
Average temperature yesterday: 47 °F

High & Low Weather Summary for the Past Weeks

 TemperatureHumidityPressure
High60 °F (Jan 10, 5:26 pm)100% (Jan 12, 8:13 am)30.24 "Hg (Jan 12, 8:13 am)
Low36 °F (Jan 16, 6:40 am)44% (Jan 14, 2:53 pm)29.34 "Hg (Jan 20, 6:53 am)
Average49 °F79%29.93 "Hg
* Reported Jan 9 1:53 pm — Jan 24 1:53 pm, San Jose, Weather by CustomWeather, © 2017

Note: Actual official high and low records may vary slightly from our data, if they occured in-between our weather recording intervals... More about our weather records

Advertising

San Jose Weather History for the Previous 24 Hours

Scroll right to see more
 ConditionsComfort  
Time TempWeatherWind HumidityBarometerVisibility
1:53 pm
Tue, Jan 24
55 °FScattered clouds.6 mph62%30.06 "Hg10 mi
12:53 pm52 °FScattered clouds.8 mph66%30.07 "Hg10 mi
11:53 am50 °FScattered clouds.6 mph71%30.08 "Hg10 mi
10:53 am49 °FPartly sunny.5 mph71%30.08 "Hg10 mi
9:53 am46 °FMostly cloudy.3 mph79%30.07 "Hg10 mi
8:53 am43 °FMostly cloudy.No wind86%30.03 "Hg10 mi
7:53 am42 °FPartly sunny.No wind85%30.01 "Hg10 mi
6:53 am39 °FPassing clouds.No wind93%29.98 "Hg10 mi
5:53 am39 °FClear.3 mph89%29.96 "Hg10 mi
4:53 am41 °FClear.5 mph89%29.95 "Hg10 mi
3:53 am42 °FClear.9 mph82%29.93 "Hg10 mi
2:53 am41 °FClear.6 mph86%29.93 "Hg10 mi
1:53 am43 °FClear.10 mph86%29.91 "Hg10 mi
12:53 am43 °FClear.9 mph86%29.91 "Hg10 mi
11:53 pm
Mon, Jan 23
44 °FMostly cloudy.9 mph85%29.91 "Hg10 mi
10:53 pm45 °FMostly cloudy.8 mph82%29.92 "Hg10 mi
9:53 pm46 °FLight rain. Partly cloudy.6 mph83%29.91 "Hg10 mi
8:53 pm46 °FPartly cloudy.5 mph86%29.90 "Hg10 mi
7:53 pm46 °FPassing clouds.8 mph86%29.89 "Hg10 mi
6:53 pm47 °FRain. Partly cloudy.No wind83%29.89 "Hg4 mi
5:53 pm48 °FPartly cloudy.10 mph77%29.87 "Hg10 mi
4:53 pm48 °FScattered clouds.7 mph74%29.86 "Hg10 mi
3:53 pm50 °FBroken clouds.8 mph71%29.86 "Hg10 mi
Weather by CustomWeather, © 2017

See weather overviewHow to use our weather pages